Regional Weather Roundup
Issued by NWS

Home | Current Version | Previous Version | Text Only | Print | Product List | Glossary On
Versions: 1 2 3 4 5 6 7 8 9 10 11 12 13 14 15 16 17 18 19 20 21 22 23 24 25 26 27 28 29 30 31 32 33 34 35 36 37 38 39 40 41 42 43 44 45 46 47 48 49 50
000
ASUS45 KCYS 100210
RWRWY

WYOMING REGIONAL WEATHER ROUNDUP
NATIONAL WEATHER SERVICE CHEYENNE WY
700 PM MST TUE FEB 09 2016

NOTE:  "FAIR" INDICATES FEW OR NO CLOUDS BELOW 12,000 FEET
WITH NO SIGNIFICANT WEATHER AND/OR OBSTRUCTIONS TO VISIBILITY.

WYZ001-100300-
YELLOWSTONE NATIONAL PARK

CITY           SKY/WX    TMP DP  RH WIND       PRES   REMARKS
LK YELLOWSTONE   N/A     22  17  81 CALM      30.46R
W YELLOWSTONE  NOT AVBL

$$
WYZ002>013-054>058-071-098>099-100300-
NORTHERN WYOMING

CITY           SKY/WX    TMP DP  RH WIND       PRES   REMARKS
JACKSON        CLEAR     16  14  93 CALM      30.46S
CODY           FAIR      39  21  48 E6        30.23F WCI  35
GREYBULL       FAIR      40  26  57 SE5       30.23F
WORLAND        FAIR      38  27  64 S10       30.23F WCI  31
SHERIDAN       FAIR      39  24  55 S6        30.14F WCI  35
BUFFALO        FAIR      48  24  39 S9        30.18F
GILLETTE       FAIR      38  29  70 W8        30.15F WCI  32
HULETT         FAIR      41  28  60 SW8       30.14F
NEWCASTLE      FAIR      37  28  70 N10       30.16F WCI  30

$$
WYZ014>020-022>026-101>103-100300-
CENTRAL WYOMING

CITY           SKY/WX    TMP DP  RH WIND       PRES   REMARKS
BIG PINEY      FAIR      32  21  64 NE3       30.40F
PINEDALE       FAIR      30  25  80 SE3       30.42R
DUBOIS         FAIR      39  14  35 NW24      30.36S WCI  28
LANDER         FAIR      32  21  64 W5        30.30S WCI  27
RIVERTON       FAIR      33  21  61 S5        30.31F WCI  29
CASPER         FAIR      36  24  62 SW23      30.26F WCI  24
DOUGLAS        FAIR      35  25  66 W5          N/A  WCI  31

$$
WYZ021-027>030-104>119-100300-
SOUTHERN WYOMING

CITY           SKY/WX    TMP DP  RH WIND       PRES   REMARKS
EVANSTON       FAIR      33  22  63 CALM      30.47R
KEMMERER       FAIR      30  23  74 SW5       30.45R WCI  25
FORT BRIDGER   CLEAR     37  23  56 W16       30.47R WCI  28
ROCK SPRINGS   FAIR      36  24  62 SW16      30.41S WCI  26
DIXON          FAIR      18  13  80 E5        30.49S WCI  11
RAWLINS        FAIR      31  19  61 SW18G26   30.38S WCI  19
SARATOGA       FAIR      25  19  80 CALM      30.42R
LARAMIE        FAIR      29  21  72 E6        30.34R WCI  23
CHEYENNE       FAIR      41  20  43 W9        30.27R
TORRINGTON     FAIR      41  26  55 NW9       30.19F
PINE BLUFFS    FAIR      37  28  70 W15       30.24R WCI  28

$$



USA.gov is the U.S. government's official web portal to all federal, state and local government web resources and services.